User: anonymous   Login
Location: Azul
(36.7830°S, 59.8500°W)
Time: 10:14:33
(UTC-03:00)
Language:

POLYITAN 1 - Orbit

View from above orbital plane
View from above orbital plane
View from above satellite
View from above satellite

Ground track
Ground track

The orbit data is extracted from the following two-line orbital elements,

1 40042U 14033AJ  21295.04856967  .00000854  00000-0  95714-4 0  9992
2 40042  97.9477 227.0209 0015828 110.9711 249.3201 14.89426221398663
Epoch (UTC): 22 October 2021 01:09:56
Eccentricity: 0.0015828
inclination: 97.9477°
perigee height: 588 km
apogee height: 611 km
right ascension of ascending node: 227.0209°
argument of perigee: 110.9711°
revolutions per day: 14.89426221
mean anomaly at epoch: 249.3201°
orbit number at epoch: 39866

The dashed part of the orbit path shows where the satellite is in the earth's shadow,  

DLR